Theta_e
292 286 283 287 288 289 289 286 285 288 295 294 292 292 293 297 298 299 301 302 304 305 307 308 310 311 325 338 336 337 335 340 339 335 334 333 332 334 334 338 342 340 339 346
287 283 290 292 291 290 288 286 285 289 294 291 289 289 292 296 297 298 299 301 303 305 305 308 307 310 316 337 337 336 335 338 341 337 336 335 335 334 335 337 342 342 340 343
285 289 295 293 290 288 286 284 285 285 290 289 287 285 289 294 297 299 301 301 303 304 304 306 307 309 310 334 337 336 335 336 342 340 338 339 339 335 331 335 340 341 341 342
287 293 292 290 289 289 284 290 290 288 285 279 286 278 286 288 293 295 298 298 301 301 303 305 306 306 311 317 339 337 336 336 338 343 338 337 338 330 335 334 340 340 340 342
288 290 290 288 290 292 287 292 289 288 285 281 284 277 282 290 289 292 296 299 300 301 301 303 304 306 307 315 337 339 337 337 337 339 342 338 336 338 336 337 338 340 339 341
291 295 292 290 293 293 294 289 288 286 282 273 283 280 281 285 288 293 297 305 307 304 303 304 304 305 305 309 322 344 340 339 339 340 340 340 338 337 339 337 338 339 339 339
288 288 293 295 290 292 290 283 273 272 274 274 285 282 282 288 293 300 301 305 306 308 307 308 308 304 305 305 313 344 344 340 341 343 340 341 341 339 339 340 338 340 338 338
281 280 289 294 291 287 286 287 280 274 270 277 286 280 285 298 301 303 303 304 306 306 308 308 309 306 305 305 307 321 343 342 343 345 343 341 343 343 340 342 340 343 342 341
281 284 293 295 295 292 288 284 290 284 281 280 282 287 293 298 299 301 301 304 304 306 308 308 309 309 305 307 305 310 329 343 344 345 346 344 344 343 344 342 343 342 346 345
288 282 292 294 295 296 293 294 284 284 276 275 282 285 287 291 294 297 298 301 303 304 307 308 310 310 310 309 308 306 310 335 345 346 347 346 345 345 345 344 342 342 346 347
289 284 287 291 289 287 289 287 288 287 286 279 278 282 292 292 295 293 295 298 300 301 304 306 310 309 308 311 312 312 314 311 333 345 346 346 347 347 345 343 343 343 347 347
290 287 283 285 292 295 294 290 289 282 277 284 282 284 295 294 294 294 294 296 298 300 302 305 308 310 312 315 315 314 314 318 317 331 344 345 347 347 346 345 342 344 345 347
290 282 278 280 287 294 288 291 292 289 288 283 281 284 295 293 291 293 292 294 295 297 299 302 307 308 311 314 318 317 317 317 319 323 339 341 344 345 344 345 343 339 342 345
296 284 281 278 283 288 286 290 289 287 283 282 282 283 288 289 289 290 291 292 294 296 299 301 304 306 308 310 312 316 318 319 318 320 324 332 338 343 343 341 335 335 336 333
289 284 285 287 288 289 289 288 287 285 286 282 283 284 288 289 290 290 292 293 293 293 295 297 299 300 304 305 307 310 313 315 316 318 321 323 324 335 337 332 330 331 331 331
291 287 288 285 289 290 288 287 287 287 287 287 285 285 291 292 292 290 291 292 290 291 292 295 296 298 300 302 303 306 308 310 314 315 318 322 325 333 334 332 330 330 328 328
292 289 287 282 287 286 284 286 286 286 288 286 282 286 289 288 288 289 290 291 290 291 291 292 294 296 299 300 302 302 305 309 311 314 317 321 325 327 333 334 331 330 327 328
291 289 287 282 282 273 287 293 289 287 288 289 288 288 289 289 290 290 292 291 290 291 291 292 293 296 300 300 301 302 304 306 310 313 317 320 325 327 333 333 332 332 328 326
293 289 282 279 278 282 288 289 287 285 285 290 288 289 290 291 290 289 293 293 292 293 294 294 296 299 300 300 300 301 302 305 308 311 316 320 328 329 330 331 332 330 327 326
293 288 280 282 278 272 285 290 293 290 281 290 290 288 288 289 282 286 292 295 294 294 294 295 298 299 299 299 300 300 301 303 307 310 313 319 323 326 330 326 329 327 326 326
283 282 279 273 276 281 290 291 291 278 279 290 291 290 289 287 289 292 295 294 295 294 294 297 297 297 298 301 303 303 305 306 309 312 315 320 320 325 327 327 325 327 328 324
287 280 274 276 272 275 292 290 284 286 291 292 290 291 291 292 293 293 294 293 293 293 295 296 296 296 299 301 304 305 307 311 316 318 319 321 321 319 317 318 324 322 315 312
282 286 285 281 279 291 292 291 293 294 292 292 291 293 293 292 292 294 294 293 293 294 295 296 296 297 299 300 302 305 308 314 314 317 319 318 317 315 315 314 314 312 310 310
289 292 286 287 290 290 292 293 294 294 293 294 294 294 293 291 292 294 295 292 293 294 295 296 295 295 296 299 300 302 306 310 306 306 312 316 314 313 313 311 310 309 308 307
287 290 288 286 288 290 292 293 293 294 295 294 295 294 293 292 291 293 294 293 293 294 296 296 295 295 296 298 298 300 303 305 303 304 303 303 303 301 299 300 306 309 309 307
291 289 285 283 288 287 288 293 295 293 294 295 294 293 294 293 292 294 294 295 294 295 295 295 294 295 296 297 298 298 300 303 302 300 302 303 302 303 303 302 299 294 296 296
Wind_Speed
5 7 6 10 7 8 11 10 10 11 14 7 13 14 9 10 14 12 13 16 18 16 15 8 9 8 9 18 18 16 16 15 14 10 11 10 11 10 9 10 12 10 11 11
6 3 8 9 9 8 9 11 9 9 10 7 10 16 14 7 8 7 15 17 17 18 16 14 7 9 12 18 21 21 21 18 17 13 13 9 12 10 10 10 12 12 14 13
3 9 13 13 11 9 6 6 7 6 7 5 8 11 8 8 8 10 12 11 11 15 19 9 5 7 9 13 21 22 23 23 18 16 7 4 4 4 5 8 9 11 13 12
4 7 14 11 9 5 10 7 6 9 4 5 1 14 12 10 10 10 12 9 9 11 11 4 3 1 3 9 16 19 22 23 21 18 16 15 15 13 10 11 10 11 13 13
7 15 15 4 7 8 9 13 6 5 12 2 16 3 8 6 12 14 10 8 9 8 9 13 8 7 5 7 14 16 19 21 19 19 19 15 16 11 10 10 13 13 12 14
9 7 5 2 6 8 12 7 6 5 1 2 6 5 11 11 11 14 7 15 15 12 10 10 10 7 6 5 11 15 17 15 15 18 20 20 20 15 11 11 10 11 9 10
6 5 6 4 14 11 13 6 6 7 5 7 5 6 11 9 3 13 13 15 17 18 16 15 15 8 8 8 9 13 17 14 13 16 18 21 19 17 17 16 12 12 11 10
7 11 6 9 15 7 9 3 2 6 3 11 11 5 4 10 8 11 15 15 18 22 20 21 23 14 11 9 10 13 16 18 18 18 17 16 17 12 12 12 12 11 12 13
6 7 19 16 13 5 6 2 6 5 5 4 5 6 2 18 20 20 19 20 18 16 21 19 20 20 15 9 10 12 15 18 22 22 19 18 16 13 13 14 12 10 11 10
4 12 7 8 7 4 6 5 3 0 4 4 6 3 5 17 18 18 18 17 18 19 20 19 17 18 13 11 7 3 4 16 18 21 19 18 20 19 16 9 13 8 9 13
3 3 9 8 2 8 3 3 3 3 4 2 4 2 6 10 11 15 17 17 17 17 15 18 18 12 9 7 10 8 8 1 9 20 20 20 18 19 15 11 10 8 13 16
2 3 6 11 17 3 4 3 4 4 4 4 4 3 7 10 14 15 17 18 18 16 15 15 17 13 10 8 7 8 7 8 5 6 16 19 19 17 15 15 10 13 14 14
3 2 6 9 5 1 3 10 10 6 3 5 5 4 3 14 16 16 18 19 18 21 20 16 13 16 15 12 9 7 8 8 9 8 10 13 16 14 15 14 13 11 12 11
9 4 7 6 13 12 10 10 9 5 2 7 6 15 16 18 20 21 20 18 19 18 18 17 13 13 15 14 15 13 11 9 9 10 10 3 5 10 11 10 10 12 9 10
4 5 5 14 18 18 17 3 10 5 3 5 8 13 10 18 19 21 19 20 19 21 20 18 17 14 14 13 15 13 9 9 8 8 8 8 6 4 7 10 11 11 12 11
2 4 5 15 13 9 9 4 10 10 7 3 9 10 11 16 16 16 19 17 18 21 21 19 18 18 17 14 12 13 12 10 7 5 5 6 7 4 10 11 13 14 14 14
3 2 4 7 11 9 4 2 9 11 4 5 5 9 14 15 16 15 12 14 20 21 22 21 19 18 18 16 15 15 11 12 8 6 5 6 8 9 8 12 12 13 16 15
5 2 2 6 8 3 3 3 7 11 4 6 7 10 12 14 17 17 10 13 16 22 20 20 18 17 16 13 16 18 15 13 10 9 4 5 8 7 8 14 14 14 13 14
4 3 3 3 3 7 4 0 7 5 3 6 9 11 12 13 12 6 13 17 19 16 18 16 16 16 12 14 15 14 16 11 11 10 7 5 9 7 6 13 16 13 14 12
6 5 4 2 4 5 1 6 8 4 5 11 9 11 14 15 9 9 20 18 18 15 14 17 13 12 12 11 13 12 13 13 13 11 10 9 5 5 11 8 13 13 14 15
3 1 4 2 4 6 1 9 9 2 6 14 9 11 14 10 9 16 18 17 17 13 16 13 11 10 10 10 11 12 12 13 13 12 7 7 3 6 5 10 9 11 11 11
3 2 3 0 2 7 0 1 1 4 6 9 11 10 13 14 17 14 15 17 18 17 16 14 11 10 9 9 9 11 11 12 10 5 4 6 7 6 8 9 6 11 15 15
3 6 3 8 7 2 2 3 4 7 9 8 9 12 13 15 16 11 14 17 16 16 14 12 10 9 8 10 9 6 7 4 4 3 5 10 10 8 10 12 10 9 11 13
4 2 3 2 4 4 5 3 4 6 6 8 9 10 11 12 16 15 12 14 14 15 14 13 13 13 11 10 10 9 9 6 8 9 6 9 12 11 10 10 8 9 9 10
6 2 4 5 2 1 5 5 4 6 5 8 8 9 9 10 13 14 13 11 13 15 15 14 13 12 14 12 11 11 10 6 10 9 9 9 9 10 14 11 5 5 10 13
5 7 5 7 5 4 3 4 3 6 6 6 8 10 10 8 10 10 11 11 12 14 16 14 16 14 13 13 13 13 13 8 9 11 8 6 7 10 10 10 12 25 17 24
Wind_Direction
314 32 317 278 258 247 279 289 297 299 292 295 285 291 295 304 303 313 312 314 307 310 271 246 234 160 167 160 153 166 157 158 154 171 175 176 185 185 183 180 187 177 190 202
359 282 266 257 276 297 295 292 298 290 293 286 286 293 306 285 285 313 297 302 308 311 279 263 227 241 172 165 166 166 176 170 172 174 184 187 184 191 187 186 177 190 193 198
226 277 342 331 313 309 303 293 309 298 320 282 286 290 292 276 284 297 284 273 290 297 279 264 243 206 141 169 169 174 178 178 178 175 157 130 113 120 173 196 195 188 198 196
256 326 323 317 298 338 312 278 267 297 7 279 3 286 279 273 288 296 293 279 281 301 297 282 137 160 120 163 174 180 181 183 185 173 177 179 185 184 191 188 192 192 192 197
282 320 322 335 359 340 277 315 282 282 294 315 282 274 270 282 289 288 275 271 285 284 294 284 240 216 207 147 172 182 188 187 188 184 186 187 193 196 184 180 178 189 192 194
324 292 307 91 345 326 320 314 313 325 52 338 257 177 272 253 247 274 328 354 339 305 319 312 267 237 227 204 146 170 185 196 194 196 190 192 197 196 185 188 180 191 190 195
321 297 314 46 349 319 352 31 325 347 347 232 309 316 247 252 356 40 356 359 6 352 343 333 326 275 247 187 169 158 169 180 186 192 205 198 199 200 198 194 184 182 189 194
351 329 16 331 316 279 296 136 218 292 266 293 309 236 291 47 41 34 19 1 7 351 341 345 346 301 247 201 185 160 176 184 189 191 197 207 205 206 208 197 198 192 193 190
327 264 312 303 327 320 318 24 219 253 261 278 259 299 185 15 17 14 5 4 360 352 336 344 344 355 292 243 180 181 174 185 190 198 200 199 203 201 206 206 205 198 191 184
246 293 287 310 315 77 46 338 330 174 297 279 290 42 15 11 0 357 358 347 342 339 344 347 344 340 341 6 42 84 238 187 188 194 198 199 203 206 209 196 204 193 176 185
257 180 290 323 289 316 346 318 286 229 249 313 320 249 355 353 360 352 346 339 338 332 333 339 340 333 312 9 13 32 26 253 233 192 197 202 202 203 205 202 183 180 189 191
278 250 281 279 295 294 170 280 268 238 285 269 244 252 263 27 2 344 329 332 331 325 333 336 336 350 336 13 2 23 4 30 357 244 220 198 203 196 195 195 176 192 195 200
198 272 302 325 349 7 342 342 325 230 247 277 300 294 307 9 346 336 330 329 329 327 326 331 349 354 344 2 343 29 2 359 0 347 228 227 206 195 199 188 181 191 195 190
151 189 202 253 278 291 288 326 14 6 307 316 268 318 335 350 338 333 330 324 325 325 329 324 356 344 335 344 346 10 0 333 360 3 14 312 259 224 190 171 159 170 158 135
115 247 232 252 264 281 297 316 355 352 3 253 322 306 344 338 326 321 320 326 335 328 326 335 341 333 329 347 332 337 326 334 344 356 19 2 329 250 168 147 150 148 138 134
138 270 288 294 273 285 287 21 350 357 334 264 303 296 340 313 314 316 323 322 333 326 321 320 321 320 320 325 318 317 320 331 323 350 356 2 333 276 168 157 157 152 146 144
172 267 294 293 321 328 191 359 348 315 322 300 311 315 327 327 327 321 305 306 321 318 314 313 312 311 312 316 318 313 318 314 323 310 348 338 311 331 172 155 161 163 157 157
185 212 214 288 332 310 100 155 324 306 262 343 318 331 331 321 318 306 310 326 316 314 309 306 304 303 299 304 308 308 315 334 335 315 345 275 279 317 162 159 170 167 162 158
158 129 295 287 272 274 171 118 329 329 258 359 335 327 318 317 315 320 339 321 312 299 299 297 292 291 296 300 297 300 306 310 307 307 304 288 268 99 186 183 164 159 161 162
95 95 133 283 272 256 122 309 311 268 249 7 338 323 319 323 323 316 326 323 320 323 309 300 300 299 291 291 286 292 290 295 292 291 287 274 267 149 169 174 171 163 167 167
316 242 231 232 258 280 60 318 301 60 280 332 333 314 319 320 313 307 319 327 327 326 315 310 307 293 291 292 273 266 268 272 275 272 262 251 250 113 154 137 169 157 153 141
220 167 249 358 309 283 110 348 71 270 304 301 318 308 311 315 320 333 325 334 334 337 331 335 330 330 321 302 283 265 257 259 253 273 207 154 119 97 86 79 153 144 134 124
269 183 211 179 222 196 164 194 231 270 289 296 303 311 322 318 325 333 337 342 336 342 340 343 342 338 343 342 332 322 322 326 351 30 138 128 105 96 111 112 104 113 120 126
299 186 222 49 235 181 174 170 247 288 284 301 307 312 318 322 326 332 345 346 343 347 347 351 357 3 1 355 355 2 358 30 51 46 39 106 105 97 97 89 102 117 115 121
196 242 237 260 294 129 199 206 234 284 277 292 304 303 311 320 326 332 350 354 347 353 350 357 1 4 8 3 11 15 12 43 68 62 54 67 85 87 73 61 58 112 125 119
180 205 172 233 205 187 202 161 230 273 280 286 304 313 325 328 327 340 351 350 354 355 358 8 359 4 8 12 13 18 17 35 71 70 54 54 81 92 91 96 80 46 65 84